GEFSSGP_500_meanwind_324.txt.gz
Wind_Speed
2 2 2 2 2 2 3 3 3 3 4 6 7 7 6 5 6 6 7 7 7 7 7 6 7 7 8 8 8 7 7 7 7 6 6 6 7 7 7 7 7 8 8 8 8 8 8 7 7
3 3 3 3 3 3 3 3 3 4 4 5 6 6 5 5 6 7 7 8 8 7 7 7 8 8 8 8 8 7 7 7 7 7 6 7 7 7 8 8 8 8 8 9 10 9 9 8 8
5 5 5 4 4 4 4 4 4 4 5 5 5 5 5 6 6 7 8 8 8 8 8 8 8 8 7 8 8 8 7 7 7 7 7 7 7 8 8 8 8 9 9 9 10 10 10 9 9
6 6 7 6 5 5 6 6 6 5 5 5 6 6 6 6 7 7 8 8 8 8 8 9 8 8 8 8 8 8 8 7 7 8 8 8 8 8 8 8 9 9 9 9 10 10 10 10 10
7 7 8 7 7 7 6 6 6 5 6 6 7 6 6 8 8 8 8 8 8 8 8 8 8 8 8 9 9 8 8 8 8 8 8 8 8 9 9 9 9 9 9 9 10 10 10 10 11
8 8 8 8 8 8 7 7 7 7 7 7 7 8 7 8 8 8 8 8 8 8 7 8 8 8 8 8 8 8 8 8 8 8 8 8 8 8 9 9 9 10 9 9 9 10 10 10 11
9 9 9 8 9 9 8 8 7 8 8 8 8 7 7 8 8 8 8 8 8 8 7 7 7 7 7 7 8 8 8 8 8 8 9 8 8 8 9 10 10 10 10 9 10 10 10 11 11
9 9 9 9 9 9 9 9 8 8 8 8 8 7 7 8 7 7 8 8 8 7 7 7 8 7 8 7 8 8 8 8 8 8 9 9 9 9 10 10 11 11 10 10 10 10 11 11 12
9 9 9 10 9 9 9 9 9 9 8 8 8 8 7 8 7 7 7 7 7 7 7 7 8 8 8 8 8 8 8 9 9 9 9 9 9 9 10 10 11 12 12 12 12 11 11 11 11
8 9 8 9 9 8 9 10 10 9 9 9 9 8 7 7 7 7 7 6 6 6 7 7 7 8 8 8 8 8 9 9 10 10 10 10 10 10 10 10 11 11 11 12 13 13 13 12 12
7 7 8 8 8 8 9 10 10 10 10 10 9 8 7 7 8 8 7 7 7 7 7 7 7 7 8 8 8 9 9 10 10 11 11 11 11 12 12 12 12 12 12 13 13 14 13 13 13
7 7 7 8 8 8 9 9 10 10 10 10 10 9 8 9 9 9 8 8 8 8 8 8 8 8 8 9 9 9 10 11 11 11 12 12 13 13 13 13 12 12 12 12 13 13 13 14 13
7 7 7 7 7 8 8 9 9 10 10 10 10 10 10 10 10 9 9 8 8 8 8 8 9 9 9 9 10 10 10 12 12 12 12 13 13 13 13 13 12 12 12 13 13 13 13 13 12
6 6 7 7 8 8 9 9 10 10 10 11 10 11 11 10 10 10 9 9 8 8 8 8 9 9 9 10 10 11 11 12 13 13 13 13 13 13 13 12 12 13 13 14 14 13 13 13 12
7 7 7 7 8 9 10 10 10 10 11 11 11 11 11 11 11 11 10 9 9 9 9 9 9 10 10 11 11 12 12 13 13 13 13 13 13 13 13 13 13 13 13 14 14 13 13 13 13
7 7 7 7 8 9 10 10 10 10 11 11 11 11 11 11 12 11 10 10 10 10 10 10 10 11 11 12 12 13 13 14 14 13 13 13 13 13 13 13 13 13 13 14 14 14 14 13 13
8 8 9 9 9 10 11 10 10 10 10 11 11 12 12 12 12 12 12 12 11 12 11 11 11 12 12 12 13 13 14 14 14 14 13 13 13 13 13 13 14 14 14 14 14 14 13 13 13
9 9 10 10 11 11 11 11 11 11 11 11 12 12 13 12 12 12 12 12 12 12 12 12 12 12 12 13 13 14 14 14 14 14 13 13 13 13 13 13 13 15 14 14 14 13 13 13 13
10 10 11 12 11 11 11 12 12 12 12 12 13 13 13 13 13 13 13 13 13 13 13 13 13 13 13 14 14 14 14 15 14 14 13 13 13 13 13 13 13 14 14 14 14 13 13 14 14
11 11 12 12 12 12 12 12 13 13 13 13 13 14 14 14 14 14 14 14 15 15 14 14 13 14 14 14 14 15 15 15 15 14 14 13 13 13 13 14 14 14 14 14 13 13 14 15 15
12 11 12 12 12 12 13 12 13 13 14 14 14 14 14 15 14 14 14 15 15 15 15 15 14 14 14 14 14 14 15 15 15 15 15 15 15 14 15 15 14 14 15 15 14 14 14 15 15
13 13 13 13 12 12 13 13 12 14 14 14 14 14 15 16 15 15 15 15 16 16 16 16 15 15 15 15 14 15 15 16 15 16 16 16 16 16 16 16 16 16 16 16 16 16 15 16 16
13 13 13 12 12 12 11 13 12 13 14 14 14 14 15 16 16 16 16 16 16 16 17 17 16 16 16 15 16 16 16 16 16 17 17 18 18 18 18 17 17 17 18 18 18 18 17 17 17
13 13 12 11 12 12 11 12 12 14 15 15 15 15 15 15 15 16 16 16 16 16 16 17 16 17 16 16 17 17 17 17 17 17 17 17 18 18 19 19 18 19 19 19 19 19 19 19 19
13 12 11 11 12 12 12 14 14 15 15 15 16 16 16 16 16 17 17 17 17 17 17 17 17 17 17 17 18 18 18 18 18 18 18 18 18 19 19 20 21 21 20 20 20 20 20 20 20
12 12 12 12 13 13 14 16 16 16 16 16 16 16 17 17 17 17 17 18 18 18 18 18 18 18 18 18 18 18 19 19 19 19 19 19 20 20 21 22 22 22 22 22 22 22 22 21 21
13 13 13 14 14 14 15 16 17 18 17 17 17 17 17 17 17 18 18 18 18 18 18 18 18 18 18 18 19 20 20 20 20 20 20 20 21 22 23 23 23 23 23 23 23 22 22 22 22
14 14 15 15 15 15 15 16 18 19 18 18 19 19 18 18 18 18 19 19 19 18 18 19 19 19 20 20 20 20 20 21 21 21 21 22 23 23 24 24 23 23 23 23 23 23 23 23 23
16 16 17 18 18 17 16 17 19 20 20 20 20 20 20 20 19 19 19 19 19 19 19 19 20 20 21 21 21 21 22 22 22 22 23 23 24 24 24 23 23 23 24 24 24 24 24 24 24
18 18 18 19 19 19 19 19 21 22 22 22 21 21 20 20 20 19 19 19 19 19 20 20 20 21 21 22 22 23 23 23 24 24 24 24 24 24 23 24 24 24 24 25 26 26 25 25 26

GEFSSGP_500_meanwind_330.txt.gz
Wind_Speed
4 4 4 4 4 4 4 3 3 4 4 3 4 4 3 3 3 4 4 4 5 5 5 5 4 4 5 5 5 6 6 6 6 6 6 6 6 6 6 7 7 7 8 9 9 9 9 9 9
4 4 4 4 4 4 3 3 3 3 3 3 3 4 3 4 4 4 4 5 5 5 5 6 5 5 5 6 6 7 7 7 7 7 7 7 6 6 7 8 8 8 9 9 9 10 10 10 10
5 4 4 4 4 4 3 3 2 3 2 3 3 3 4 4 5 5 5 6 6 6 6 6 6 7 6 6 6 6 7 7 7 7 8 8 7 7 7 8 9 9 9 9 9 10 10 11 11
5 5 5 5 4 4 4 4 3 2 2 3 3 3 4 5 5 5 6 6 7 6 6 6 7 7 7 6 7 6 7 7 7 7 8 8 8 7 8 8 9 9 9 9 9 10 10 10 10
6 5 6 6 5 5 4 4 3 3 3 3 4 4 4 5 5 5 6 6 7 7 7 7 7 7 7 7 6 7 7 7 7 8 8 8 8 9 9 9 9 9 9 9 9 10 10 11 11
7 7 7 7 6 5 5 5 4 4 4 4 4 4 5 5 5 5 6 5 6 6 7 6 6 7 7 7 7 8 8 8 8 8 9 9 8 8 9 9 9 9 10 10 11 11 11 11 11
8 8 8 8 7 7 6 5 5 5 5 5 5 5 5 5 5 6 5 5 5 6 6 6 6 6 7 7 8 8 8 8 8 9 9 9 9 9 9 9 10 10 11 11 11 11 11 11 12
9 9 9 9 8 9 8 6 5 6 6 5 5 5 5 5 5 5 5 5 5 5 5 6 6 6 7 7 7 7 7 8 8 9 9 9 10 10 9 9 10 10 10 11 11 10 10 11 11
9 9 9 8 8 8 7 7 6 6 6 6 5 5 5 5 5 5 5 4 4 4 5 5 5 6 6 6 6 7 7 8 8 9 9 9 10 10 10 10 9 10 11 11 11 10 10 12 12
8 9 8 7 7 7 7 7 7 6 6 6 6 6 5 5 5 4 4 4 4 4 4 5 5 5 6 6 6 7 7 8 8 9 9 9 10 10 10 10 11 11 11 12 12 12 13 13 12
7 8 8 7 7 7 7 8 8 8 7 6 5 5 5 5 5 4 5 5 5 5 5 5 5 5 6 6 6 7 8 8 8 9 9 10 10 11 11 11 12 12 12 12 12 12 12 13 13
7 7 7 7 7 7 8 8 8 8 7 7 7 7 6 6 6 6 6 5 5 5 6 6 6 6 6 7 7 7 8 8 9 9 10 10 11 11 12 12 12 12 12 12 12 11 11 12 12
7 7 7 7 6 6 6 8 8 7 7 8 8 7 7 6 6 6 7 6 6 6 6 6 6 6 7 7 8 8 8 9 10 10 11 11 11 11 12 12 12 12 12 12 12 12 11 11 12
7 7 8 7 6 6 6 6 7 7 7 8 8 7 7 7 7 7 7 7 7 7 7 7 7 7 8 8 8 8 9 9 10 10 11 11 12 12 12 12 13 12 12 12 12 13 12 12 12
6 7 7 7 7 6 6 7 7 7 7 8 8 8 7 7 7 7 7 8 8 8 8 8 8 8 8 8 9 9 9 10 10 10 11 11 12 12 12 12 12 12 12 12 13 12 12 12 12
7 7 8 7 7 7 7 7 6 7 7 7 8 8 8 8 8 8 8 8 8 8 8 8 8 8 9 9 9 10 11 10 11 11 11 12 11 11 11 11 11 11 11 11 12 12 12 11 11
9 8 8 8 8 8 8 7 7 7 7 7 8 8 8 8 8 9 9 8 9 9 9 9 9 9 9 10 10 11 12 12 12 12 12 12 12 11 11 11 11 11 11 11 11 10 11 11 10
10 9 9 8 8 8 9 8 8 7 8 8 8 8 8 9 9 9 10 9 9 9 9 9 9 9 10 10 10 11 12 13 13 13 13 12 12 11 11 11 11 11 11 10 10 10 10 10 11
11 10 9 9 9 9 9 9 9 8 8 8 9 9 9 9 10 10 10 9 10 11 11 11 10 10 10 10 10 11 12 12 13 13 12 12 12 12 11 11 11 11 11 11 11 11 11 11 11
11 10 10 10 10 10 10 10 10 10 9 9 9 9 10 10 10 10 11 11 11 11 12 12 11 11 11 12 11 11 12 13 13 13 13 13 13 13 12 12 12 12 12 12 13 13 12 13 13
11 11 10 10 10 11 11 10 10 10 10 9 9 9 10 10 11 11 11 11 12 12 12 13 12 12 12 12 11 12 13 13 13 13 13 12 13 13 13 13 13 13 13 13 13 13 13 14 14
11 11 12 12 11 11 11 11 10 10 10 9 9 9 10 11 11 11 11 12 13 13 13 13 13 13 13 13 13 13 12 12 13 13 13 13 14 13 14 14 15 15 15 15 14 15 15 15 16
11 12 12 12 12 12 13 12 10 10 9 9 9 9 9 10 11 11 11 12 13 13 14 14 14 14 13 13 13 14 13 14 14 14 14 14 14 15 15 15 16 16 16 16 16 17 17 17 17
11 11 12 12 12 12 12 12 10 9 9 9 10 10 10 10 10 11 12 13 13 13 14 14 14 14 14 13 14 14 15 15 15 15 14 14 14 15 16 16 17 17 17 17 17 18 18 18 19
12 11 12 12 12 10 11 11 9 8 8 9 9 10 10 10 11 11 12 13 13 13 14 14 14 15 15 14 14 15 15 15 15 16 16 16 16 15 16 16 17 17 18 18 18 18 19 19 20
13 12 12 12 11 10 10 11 10 10 10 10 10 10 10 11 11 12 12 12 13 14 14 14 14 15 15 16 16 16 16 15 16 17 17 17 17 18 17 17 18 18 19 19 19 19 19 20 20
13 12 12 13 13 12 12 12 12 12 11 11 11 11 11 11 11 12 12 13 13 13 14 14 14 15 16 16 16 16 16 16 17 17 17 18 18 19 18 18 18 19 19 20 20 20 20 20 20
13 13 15 15 15 14 13 13 13 13 12 12 13 12 12 12 12 13 13 13 14 15 15 15 16 16 17 17 17 18 18 18 18 19 19 18 19 20 20 19 19 19 20 20 20 20 21 21 21
14 15 15 16 16 16 15 14 14 14 13 14 14 14 15 14 14 14 15 14 14 15 15 16 17 17 17 18 18 19 19 20 20 20 20 20 20 20 21 21 20 20 20 21 21 22 22 22 22
16 16 16 17 18 18 18 17 16 16 16 16 16 16 17 17 16 16 16 15 15 15 16 17 17 18 18 19 19 20 20 21 21 21 21 21 21 21 22 22 22 21 21 22 23 23 23 23 24

GEFSSGP_500_meanwind_336.txt.gz
Wind_Speed
3 3 4 4 4 3 3 3 3 4 4 4 4 4 4 4 4 4 4 5 5 5 5 5 4 4 4 4 4 4 4 4 4 5 4 4 4 4 5 5 5 5 6 6 6 7 7 7 7
2 3 4 4 3 3 3 3 3 4 4 4 4 4 4 4 4 4 4 4 5 5 5 5 5 5 5 4 5 6 5 5 5 5 5 5 5 6 7 6 6 7 7 7 7 7 7 8 8
3 3 3 3 3 3 3 3 3 3 4 4 5 4 4 4 4 5 5 5 6 6 6 6 5 5 5 5 5 6 5 5 5 5 5 6 7 7 7 7 7 8 8 8 8 8 8 8 8
4 3 4 4 4 4 4 3 3 4 4 4 5 5 4 4 5 5 5 6 6 6 6 6 6 6 5 5 5 5 5 5 5 6 6 6 7 7 8 8 8 8 8 9 8 8 8 8 8
5 4 4 5 5 5 5 4 4 4 3 3 4 5 5 5 5 5 5 5 6 6 6 6 6 6 6 6 5 6 6 6 6 6 6 6 7 7 7 8 9 8 8 8 9 9 9 9 9
6 6 6 6 6 6 5 5 5 5 4 4 4 5 5 5 5 5 5 5 6 6 6 7 7 7 7 7 6 7 7 6 6 7 7 7 7 8 8 8 9 9 9 9 9 10 10 10 9
7 7 7 7 7 6 6 6 6 6 5 5 5 5 5 5 5 5 6 6 6 6 6 7 7 6 7 7 7 7 7 7 7 7 8 8 8 8 9 9 9 10 10 10 10 11 10 10 11
8 8 8 8 8 7 7 7 7 7 6 6 6 6 6 5 5 6 6 6 6 6 6 6 6 6 6 7 7 8 8 8 8 8 8 8 8 9 9 10 10 10 10 10 11 11 12 12 12
8 8 8 8 8 8 8 9 8 8 8 7 7 6 6 6 6 6 7 7 6 6 6 5 5 6 6 7 7 7 7 7 7 8 8 8 8 8 9 10 10 10 11 11 11 12 12 12 13
7 7 8 8 8 8 8 9 9 9 8 8 8 7 6 6 6 6 6 6 6 6 5 5 5 6 6 6 6 7 7 8 8 8 8 8 9 9 10 10 11 11 11 11 12 12 12 13 13
8 8 8 8 8 8 8 9 9 8 8 8 8 8 7 7 7 7 6 7 7 6 6 6 6 6 6 6 7 7 7 8 8 8 8 9 9 10 10 11 11 11 11 11 11 12 13 13 13
7 8 9 8 8 8 8 8 8 8 8 8 9 9 9 8 8 7 7 7 7 7 6 6 6 6 7 7 7 7 8 8 8 9 9 9 10 10 11 11 11 11 12 12 12 13 12 12 12
7 7 8 8 9 8 8 8 8 8 8 8 8 8 9 9 9 8 8 8 7 7 7 7 7 7 8 8 8 8 8 8 9 9 9 10 10 11 11 11 11 11 12 12 12 12 12 12 12
7 7 7 8 8 7 7 7 7 8 8 8 8 8 8 8 8 8 8 8 8 8 7 7 7 8 8 8 8 8 9 9 9 9 10 10 11 11 12 12 12 12 12 12 12 12 12 12 11
8 7 8 8 8 8 8 8 7 8 8 8 8 8 8 8 8 8 8 8 8 8 8 8 8 8 7 7 8 8 9 9 10 10 11 11 11 12 12 12 12 11 12 12 12 12 12 11 12
8 8 8 8 8 8 9 9 8 8 8 8 8 8 9 9 9 9 9 9 9 9 9 9 9 9 9 9 9 8 9 9 10 10 10 11 12 12 12 11 11 11 11 11 11 12 12 12 13
9 9 9 9 9 9 10 9 9 9 8 8 9 9 9 9 9 9 10 10 10 10 10 10 9 10 10 10 9 9 9 10 10 10 11 11 11 11 11 11 10 11 11 11 11 12 12 12 12
10 10 10 10 10 10 11 10 9 9 9 9 10 10 10 9 10 10 10 10 10 10 10 11 10 10 10 10 10 10 11 11 11 11 11 11 11 10 10 10 10 11 11 11 12 12 12 12 12
11 11 10 11 11 11 11 10 10 10 10 10 10 11 10 10 11 11 11 11 11 10 11 11 11 11 11 11 11 12 12 12 11 11 11 11 11 11 11 11 11 11 12 12 12 12 12 12 12
12 11 11 12 12 12 11 11 11 11 11 11 11 11 11 11 11 12 12 11 11 11 11 12 12 12 12 12 12 12 12 12 12 12 12 12 12 12 12 11 12 12 12 12 12 12 12 13 13
13 12 12 12 13 13 13 12 12 12 12 12 12 12 12 11 12 12 12 12 12 12 12 13 12 12 12 13 12 13 13 12 12 12 12 12 12 12 12 12 12 13 13 12 12 13 13 13 14
13 13 13 13 14 13 13 13 12 13 13 13 13 13 13 13 13 13 13 13 13 13 13 14 14 14 13 13 13 13 12 12 12 12 12 13 13 13 13 13 13 13 13 14 14 14 14 14 15
14 14 14 14 15 14 14 14 13 13 14 14 13 14 14 14 14 14 14 14 14 14 14 14 14 14 14 14 14 14 14 13 13 13 14 14 14 14 14 14 15 15 15 15 15 15 15 16 16
14 15 15 15 15 14 13 14 12 12 13 13 13 13 13 13 14 14 14 14 14 14 15 15 14 14 15 15 14 14 15 15 15 15 15 15 15 15 15 15 16 17 17 17 17 17 17 17 18
15 16 16 15 15 14 13 14 12 12 12 12 13 13 13 13 13 13 14 14 14 14 14 14 15 15 15 15 15 16 16 16 16 16 16 16 17 16 16 17 17 18 18 19 19 19 18 19 19
16 16 16 15 15 13 13 13 12 12 12 12 13 13 13 13 13 14 14 14 14 14 14 14 15 15 16 16 17 17 17 17 17 17 17 18 18 18 19 19 19 19 20 20 20 20 21 21 21
16 15 15 15 15 13 13 13 12 12 12 13 13 14 14 13 14 14 14 14 14 15 15 15 16 16 16 17 18 19 18 18 18 18 19 19 19 20 20 20 20 20 20 21 21 22 22 22 22
16 16 16 16 16 15 14 13 13 13 13 13 14 14 14 14 14 14 14 15 15 16 16 16 17 17 17 18 18 19 19 19 20 20 20 20 20 21 21 21 21 22 22 22 23 23 23 23 23
16 17 17 17 17 18 17 15 14 14 15 15 15 16 15 15 16 16 16 16 16 17 17 17 17 18 18 18 19 20 20 20 20 21 21 22 22 22 22 22 23 23 23 24 24 24 24 24 24
18 18 18 19 19 19 19 17 16 16 16 17 17 17 17 17 17 17 17 17 17 18 18 18 19 19 19 19 20 21 21 21 21 22 22 23 23 23 23 24 24 24 24 25 25 25 25 25 25

GEFSSGP_500_meanwind_342.txt.gz
Wind_Speed
4 4 4 4 4 5 6 5 5 4 4 4 4 5 5 5 4 5 5 5 5 5 5 5 5 5 5 5 4 4 4 3 4 4 4 4 5 5 6 5 5 5 6 6 6 6 6 6 7
4 4 4 4 5 5 5 5 5 5 4 4 5 5 5 5 5 5 5 5 5 5 6 6 6 6 5 5 5 5 5 4 4 4 4 5 5 5 6 6 6 6 6 7 7 7 7 7 7
5 5 5 4 5 5 4 5 5 5 4 4 5 5 5 5 5 5 5 5 5 6 5 6 7 7 6 6 6 6 5 5 5 5 5 5 6 6 6 7 7 6 7 7 7 8 7 8 8
5 5 5 5 5 5 4 4 4 4 4 4 4 5 5 5 5 5 5 6 6 6 5 6 6 6 7 6 6 6 6 6 6 5 6 5 6 6 6 7 7 7 7 8 8 9 8 9 9
5 5 5 6 7 6 5 5 5 5 4 4 4 5 5 5 5 5 5 5 5 6 5 6 6 7 7 7 6 6 6 6 6 6 6 6 5 5 6 7 8 8 8 8 9 9 9 9 10
6 5 5 6 7 7 6 6 6 5 5 5 5 5 5 5 6 6 6 6 6 6 6 6 7 7 7 7 7 7 7 7 6 6 7 6 6 6 7 7 7 8 8 9 9 10 10 10 10
6 6 6 6 7 7 7 6 6 6 6 5 5 5 5 6 6 6 7 7 7 7 7 7 8 8 7 7 8 8 8 8 8 7 7 7 7 7 8 8 8 8 9 9 10 10 11 11 11
7 7 7 7 7 7 7 7 7 7 7 6 6 6 6 6 6 7 7 7 7 7 8 9 8 8 8 8 8 8 8 8 8 8 8 7 7 8 8 8 8 9 9 9 10 10 10 11 12
7 7 7 7 8 8 8 8 8 8 8 8 7 7 7 7 7 7 7 7 7 7 8 8 8 8 8 8 9 9 8 8 8 8 8 8 8 8 9 9 9 10 10 10 10 10 11 11 13
7 7 7 7 8 8 8 8 8 9 9 9 9 9 8 8 7 7 8 8 8 8 8 8 9 9 9 9 9 9 8 8 8 8 9 9 9 9 9 9 9 10 10 11 11 11 11 12 13
7 7 7 7 8 8 8 8 9 9 9 9 9 9 9 9 9 8 8 9 9 9 9 8 8 9 9 9 9 9 9 9 9 9 9 9 9 10 10 10 10 10 11 11 11 11 12 12 12
7 7 8 8 8 8 8 9 9 9 9 10 10 10 10 10 10 10 9 9 9 9 9 9 9 9 9 9 9 9 9 9 10 10 10 10 10 10 10 11 11 11 11 11 11 11 12 12 13
8 8 8 8 8 8 8 8 8 9 9 9 9 10 10 10 10 10 10 10 10 10 10 10 10 10 10 10 9 9 9 10 10 10 10 10 10 10 11 11 11 12 12 12 11 11 11 12 12
8 8 8 8 8 8 8 8 9 8 8 9 9 9 10 11 11 11 10 11 11 11 11 10 10 11 11 10 10 10 10 10 10 10 10 11 11 11 11 10 11 12 12 11 11 11 11 12 12
9 9 8 9 9 9 9 8 9 8 8 9 9 9 10 10 11 11 11 10 11 10 11 11 11 11 11 11 11 11 10 10 10 10 10 10 10 10 10 11 11 11 11 11 11 11 11 11 12
8 9 9 9 9 9 9 9 9 9 9 8 9 10 10 11 11 12 12 11 11 11 11 12 12 12 12 12 11 12 12 11 11 10 10 10 10 10 10 10 11 11 11 10 10 11 11 12 12
9 9 10 10 10 10 10 10 10 10 10 9 9 9 10 10 11 11 12 12 12 12 12 12 12 12 12 12 13 13 12 11 11 10 10 10 10 11 11 11 11 11 11 11 12 12 12 12 12
9 9 10 11 10 11 11 10 10 10 10 10 10 10 10 10 10 11 11 12 12 12 12 13 12 12 12 12 12 12 12 12 12 11 11 11 11 11 11 11 11 10 10 11 12 12 13 13 12
10 10 10 11 11 11 11 11 11 11 11 11 11 11 11 11 11 12 12 12 12 12 12 12 13 13 13 13 13 12 12 12 12 12 12 13 13 12 11 11 11 11 11 12 12 12 12 13 13
11 11 11 11 11 11 11 11 11 11 11 12 12 11 12 12 12 12 13 14 14 13 13 13 13 13 13 13 13 13 12 13 13 13 13 13 13 12 12 12 12 12 13 13 13 12 13 13 13
12 12 12 12 13 13 13 12 12 12 13 13 13 13 13 13 13 13 13 13 13 14 14 14 14 15 15 14 14 14 14 14 14 14 14 14 14 13 12 12 13 13 14 14 14 14 14 14 14
13 12 13 13 14 14 13 14 13 14 14 14 14 14 14 14 14 14 14 15 14 14 15 15 15 16 16 15 15 15 15 15 14 15 15 15 14 14 14 14 14 15 15 15 15 15 15 15 15
14 14 14 14 14 15 14 15 14 14 14 14 14 14 14 15 15 15 15 15 15 15 15 15 16 16 17 16 16 16 15 15 15 15 15 15 15 15 15 15 16 16 16 16 16 16 16 16 16
14 14 15 15 15 16 15 15 14 14 14 13 14 14 14 15 15 15 16 16 15 15 15 15 16 17 17 17 17 17 17 17 16 16 16 16 16 17 17 17 17 17 17 17 17 17 17 18 18
15 15 15 16 16 16 15 14 13 13 13 13 14 14 14 14 15 15 15 15 15 16 16 16 16 17 17 17 17 18 18 18 18 18 18 18 18 19 18 18 18 19 19 19 19 19 19 19 19
15 15 15 16 15 15 15 14 14 13 12 13 13 14 14 15 15 15 15 15 15 16 16 17 17 17 18 18 17 18 19 19 19 19 19 19 20 20 20 20 20 20 20 20 21 21 21 20 20
16 16 16 16 16 15 15 14 14 13 13 13 14 14 15 15 15 16 16 16 16 17 17 17 18 18 18 19 19 19 20 20 20 20 20 20 21 21 21 21 21 21 21 21 22 21 21 21 21
17 16 16 16 16 16 16 15 14 13 13 14 14 15 15 15 16 16 16 17 17 17 17 18 18 19 20 20 20 20 21 21 21 21 22 22 22 22 22 23 23 22 23 23 22 22 22 22 22
17 16 16 17 18 18 18 17 15 15 14 15 15 15 16 16 17 17 17 17 17 18 18 18 19 19 20 20 21 22 22 22 22 23 23 23 23 22 23 23 24 23 23 22 22 22 22 23 23
18 17 17 17 18 18 18 18 17 16 16 16 16 16 16 17 17 17 18 18 18 18 19 19 19 19 20 20 21 22 22 22 23 23 24 24 24 23 23 24 24 24 24 24 24 23 23 23 24

GEFSSGP_500_meanwind_348.txt.gz
Wind_Speed
3 2 2 2 3 3 3 4 4 4 4 4 5 5 5 5 6 6 6 7 6 6 6 6 6 7 7 7 6 6 6 5 5 5 5 5 6 5 6 6 6 6 6 6 6 6 6 6 6
3 3 3 3 3 4 4 4 4 4 4 5 5 5 5 6 6 6 6 6 6 6 6 6 6 7 7 7 7 7 7 6 6 6 6 6 6 6 6 7 7 7 7 7 7 7 7 7 7
4 4 3 3 4 4 4 4 4 4 5 5 5 6 5 6 6 6 6 7 7 7 7 7 7 7 7 8 8 7 8 7 7 6 6 6 6 7 7 8 8 7 7 7 7 7 7 8 8
4 4 4 4 4 4 5 4 4 5 5 5 5 6 6 6 6 6 7 7 7 7 7 7 8 8 8 8 8 8 8 7 8 7 7 7 8 8 8 8 8 8 8 8 8 8 9 9 9
5 5 5 5 6 6 5 5 6 6 6 6 6 6 6 6 6 7 7 7 7 7 7 8 8 8 8 8 8 8 8 8 8 8 8 8 8 8 8 7 8 8 8 8 9 9 10 10 10
6 6 5 6 7 7 7 6 7 7 7 7 7 6 6 6 7 7 7 8 8 8 8 8 8 8 8 8 9 9 8 8 9 9 8 8 8 8 8 8 8 8 9 9 10 10 11 11 11
6 6 6 7 8 8 7 7 7 7 7 7 7 7 7 7 7 8 8 8 8 8 8 8 8 8 8 8 8 8 8 8 8 8 8 8 8 8 8 8 8 8 9 9 9 10 11 11 11
7 6 7 7 7 8 8 8 8 8 8 8 8 8 8 8 8 8 9 9 9 9 8 8 9 9 9 9 9 9 9 9 9 9 9 8 9 9 9 9 9 9 9 9 10 10 10 10 10
7 7 7 7 7 8 8 8 9 9 9 9 9 9 9 9 9 9 9 9 9 9 9 9 9 9 9 9 9 9 9 9 9 10 10 9 9 10 10 10 10 10 10 10 10 10 11 11 11
7 7 8 8 8 8 8 8 9 9 9 10 10 10 10 9 9 9 9 9 10 9 10 9 9 9 9 9 9 9 10 10 10 10 10 10 10 10 10 11 11 11 10 11 11 11 11 11 11
8 8 8 8 8 8 8 9 9 9 9 10 10 10 10 10 10 10 10 10 10 10 10 10 10 9 9 9 9 10 10 10 10 10 10 10 10 10 10 11 11 11 11 11 11 11 11 11 11
9 8 8 8 8 8 8 9 9 9 10 10 11 10 10 10 10 10 11 11 10 11 11 11 10 10 10 9 10 10 10 10 11 11 11 11 11 10 10 10 11 11 11 11 11 11 11 11 11
9 9 8 8 8 8 9 9 9 10 10 10 11 11 11 11 11 11 11 11 11 11 11 11 11 11 10 10 10 11 11 11 11 11 11 11 11 11 10 10 10 10 11 11 11 11 11 11 11
9 9 9 9 8 9 9 9 10 9 10 10 11 11 11 11 11 12 12 12 12 11 11 12 12 11 11 11 11 11 12 12 12 11 11 11 11 11 11 11 11 11 11 11 11 12 11 11 11
9 9 9 9 9 9 9 9 9 9 10 10 11 11 11 11 12 12 12 12 12 12 12 12 13 12 11 11 12 12 12 12 12 12 12 12 12 12 11 11 11 11 11 12 12 12 12 12 12
10 9 9 10 10 10 10 10 10 10 11 11 11 11 11 12 12 13 13 13 13 13 13 13 13 13 12 12 12 12 12 12 12 12 12 12 12 11 11 11 11 12 12 12 12 12 12 12 12
9 9 10 10 10 11 11 11 11 11 11 12 12 12 11 11 12 12 12 12 12 13 13 13 13 13 14 14 13 13 12 12 12 12 12 12 12 12 12 12 12 11 11 11 11 12 13 13 13
10 11 11 11 11 11 11 12 13 12 12 13 12 12 12 11 11 11 11 12 13 13 13 13 13 13 13 14 14 14 13 13 12 12 12 12 12 12 12 12 11 11 11 11 12 12 13 13 13
11 12 12 11 11 12 12 12 12 13 12 13 13 13 12 12 11 11 11 12 12 12 13 13 14 14 14 14 14 14 14 13 13 13 13 13 13 13 13 12 12 12 12 13 13 13 13 13 13
13 13 13 12 13 13 13 13 13 13 13 13 13 13 12 12 12 12 12 13 13 12 12 12 13 14 14 14 14 14 14 14 14 14 14 14 14 13 13 14 14 14 13 14 14 15 15 15 15
14 14 14 13 14 14 14 14 14 14 14 14 14 14 13 14 13 13 13 13 13 13 13 13 13 13 13 13 14 14 15 15 15 15 15 15 15 14 14 15 15 15 15 15 15 16 16 16 16
15 14 14 14 15 15 14 15 14 15 15 14 14 14 14 14 14 14 14 14 14 14 14 14 14 14 14 15 15 15 16 16 16 16 16 16 15 15 15 15 16 16 16 16 16 17 17 17 18
14 14 14 14 15 15 15 16 16 16 15 15 15 15 15 15 15 15 15 14 15 15 15 15 15 15 16 16 17 17 17 17 17 17 17 17 16 16 16 17 17 17 18 18 18 18 18 18 18
15 15 14 14 15 15 15 16 17 16 16 15 15 15 15 15 15 15 15 15 16 16 16 16 17 17 17 17 17 18 18 18 18 18 18 18 18 18 18 19 19 19 19 19 20 20 20 19 19
16 15 15 14 15 15 16 17 17 16 16 17 16 16 16 15 15 15 16 16 16 16 16 17 17 17 18 18 18 18 19 19 19 19 19 19 19 19 19 20 21 21 21 21 21 21 21 21 20
16 16 15 15 15 15 15 17 16 17 16 16 16 16 16 16 16 16 16 16 16 16 17 17 17 17 18 18 19 19 19 19 19 19 19 19 20 20 20 20 21 22 22 22 21 21 21 22 21
17 16 16 16 16 16 16 17 16 17 16 17 17 17 16 16 16 17 17 17 17 17 18 18 18 18 18 18 19 19 20 20 20 20 20 21 21 21 21 21 22 22 22 22 23 22 22 22 22
18 17 16 16 17 17 17 17 17 18 17 16 17 17 17 17 17 18 18 18 18 18 19 19 19 19 19 19 19 19 20 20 20 21 21 22 22 21 21 22 22 22 22 22 23 23 23 22 22
18 18 18 18 18 18 18 18 18 18 18 18 18 18 18 18 18 18 18 18 18 19 19 20 20 19 19 19 19 20 20 20 21 21 21 22 22 22 22 23 23 23 23 23 23 23 23 24 23
19 19 19 19 19 19 19 19 18 17 18 19 19 19 20 19 19 19 19 19 20 19 20 20 20 20 20 21 21 21 21 21 21 22 22 23 23 24 24 24 24 24 24 24 24 23 24 24 25

GEFSSGP_500_meanwind_354.txt.gz
Wind_Speed
4 4 4 4 3 3 3 3 2 2 2 1 1 0 1 1 2 3 3 3 3 4 4 4 4 4 4 4 4 4 5 5 5 6 6 6 5 6 6 7 7 7 8 7 7 7 7 7 7
4 4 4 3 3 3 3 2 2 1 1 1 2 2 1 1 2 2 2 2 2 4 4 4 4 5 5 5 5 5 5 5 6 6 7 7 7 7 7 7 7 8 8 8 7 8 8 8 7
4 4 4 3 3 3 2 2 1 1 1 1 2 3 2 2 2 3 3 3 3 4 4 5 5 5 5 6 6 6 6 7 7 7 7 7 7 7 7 7 7 8 8 8 8 8 8 9 9
5 5 4 4 4 2 1 1 1 2 2 2 3 3 3 2 2 3 4 4 4 4 5 5 5 5 6 6 7 7 7 8 8 8 8 7 7 7 7 8 8 8 8 8 8 8 9 9 9
5 6 5 5 5 4 2 2 2 3 3 3 3 3 3 4 4 4 5 5 5 4 5 5 5 6 6 7 7 7 8 9 8 8 8 8 8 8 8 8 8 8 9 9 9 9 9 9 9
5 5 6 5 6 4 4 4 3 3 3 3 3 4 4 4 4 5 5 5 5 5 5 5 5 6 6 7 8 8 9 9 8 8 9 9 9 9 8 8 8 8 9 10 10 10 10 10 10
6 6 6 5 6 5 5 4 4 4 4 3 4 5 6 5 5 5 6 6 6 5 6 6 6 7 7 7 7 8 9 9 9 9 9 9 9 9 9 8 9 9 9 10 10 10 9 9 9
7 6 6 6 6 5 4 4 4 4 4 4 5 5 6 6 6 6 6 6 6 6 6 7 7 7 7 7 7 8 8 9 9 9 9 9 10 10 9 9 9 9 9 10 10 10 10 10 10
7 7 6 6 5 5 5 4 4 5 5 5 5 5 6 6 6 6 6 6 7 6 6 7 7 7 7 7 7 8 8 8 9 9 9 9 9 9 9 9 9 9 9 9 10 10 10 11 11
7 7 6 6 5 5 4 4 5 5 5 5 5 6 6 7 6 6 7 7 7 7 7 7 7 7 7 7 8 8 8 8 9 9 9 9 9 9 10 10 10 10 10 10 10 10 10 11 11
8 7 7 6 6 5 4 4 5 5 5 5 6 7 7 7 7 7 7 7 7 7 7 8 8 8 8 8 8 8 8 8 9 9 9 9 9 10 10 10 10 11 11 11 11 11 11 11 11
8 7 7 7 6 5 4 4 5 5 5 6 6 6 6 7 8 8 8 8 8 8 8 8 9 9 9 9 9 8 8 9 9 9 9 10 10 10 10 10 10 11 11 11 11 11 11 11 11
8 7 7 7 6 5 5 5 5 5 5 5 6 6 6 7 6 7 8 8 8 8 9 9 8 8 9 9 9 9 9 9 9 10 10 10 10 10 11 11 11 11 11 11 10 11 11 11 11
9 8 8 8 7 7 6 6 6 5 5 5 5 6 6 6 7 7 8 9 9 8 8 8 8 9 9 9 9 9 9 9 9 9 10 10 10 10 11 11 11 11 11 10 10 11 11 11 11
9 10 9 9 8 7 7 7 7 6 6 5 5 6 6 7 7 8 8 8 8 8 9 9 9 10 10 11 10 10 10 10 10 10 10 10 10 10 10 11 11 11 11 10 11 11 11 11 12
10 10 10 9 9 8 8 7 8 7 7 7 7 7 7 7 8 8 8 9 8 8 8 9 10 10 11 11 11 11 11 11 10 10 10 10 11 11 11 11 11 11 11 11 10 10 11 11 11
10 10 10 10 9 9 8 8 8 8 7 7 7 7 7 7 7 7 8 8 8 7 8 9 10 10 11 11 11 11 11 11 11 11 11 11 11 12 12 12 12 12 12 11 11 11 11 11 12
11 11 11 10 10 10 9 8 8 8 7 7 8 8 8 8 7 7 8 8 8 8 9 9 10 10 11 12 11 11 12 11 11 11 11 12 11 12 12 12 12 12 12 12 12 12 12 12 13
11 11 11 10 10 10 10 9 9 9 8 8 8 9 9 9 8 8 8 8 8 9 9 10 10 10 11 12 12 12 12 12 12 12 12 12 12 13 13 12 12 12 12 13 13 13 13 14 14
12 11 11 10 10 11 11 10 10 10 9 9 9 9 9 9 9 9 9 9 9 9 9 10 10 11 11 12 13 13 13 13 13 13 14 14 13 13 13 13 14 14 14 14 14 14 14 15 15
13 12 12 12 12 12 12 12 11 11 10 10 9 9 10 10 10 10 10 10 10 10 10 10 11 11 12 12 13 13 13 13 13 14 14 13 13 14 14 14 14 14 15 15 15 15 16 16 16
13 13 13 13 13 14 14 14 12 11 11 11 10 10 10 11 11 11 11 10 11 11 11 11 12 12 12 12 13 13 14 14 14 14 14 14 14 14 14 14 15 15 15 16 16 17 17 17 18
14 13 14 14 15 15 15 15 12 11 12 11 11 10 10 11 12 12 11 11 11 11 12 12 13 13 13 13 13 13 14 14 15 15 15 15 15 15 15 16 16 17 17 17 18 18 19 19 19
14 14 14 15 16 16 14 15 13 12 12 12 12 11 11 11 11 11 11 11 11 11 12 12 13 13 14 14 14 14 14 15 15 15 15 16 16 16 16 17 18 18 18 18 18 18 19 19 18
15 15 15 16 16 16 15 16 14 13 12 12 12 12 12 11 11 11 12 11 12 12 12 13 13 14 14 14 15 15 15 16 16 16 16 17 17 17 17 17 18 18 18 19 19 18 19 18 18
16 16 17 17 17 16 16 16 15 13 12 12 12 12 12 12 12 12 12 13 13 13 13 13 14 14 14 15 15 16 16 17 17 18 18 18 18 18 18 18 19 19 19 19 19 19 19 19 19
17 17 17 18 18 18 17 16 15 14 13 12 12 13 12 12 13 14 14 13 14 14 14 14 15 15 16 16 16 17 17 17 18 18 19 19 19 19 19 19 20 19 19 19 19 19 20 20 20
17 17 17 18 19 18 18 17 16 15 14 14 13 14 14 13 14 15 15 15 15 15 15 15 16 16 17 17 18 18 19 19 19 20 20 20 20 21 20 20 20 20 19 19 20 20 20 21 21
17 18 19 20 20 19 18 17 16 16 16 16 15 15 15 15 16 16 16 16 16 16 16 16 17 17 18 18 18 19 19 19 20 21 21 21 21 22 22 21 22 21 21 21 22 22 22 22 22
18 18 19 21 21 20 20 18 18 17 17 17 17 16 16 16 17 17 17 17 17 17 17 18 18 18 19 20 20 20 20 20 21 21 21 22 22 22 23 22 23 23 23 23 23 23 23 24 23

GEFSSGP_500_meanwind_360.txt.gz
Wind_Speed
3 2 2 3 2 3 3 3 2 2 1 0 1 1 1 2 2 2 2 2 2 2 2 2 3 3 3 4 4 3 3 3 4 4 4 5 5 5 5 5 6 6 6 6 6 6 6 7 7
3 3 3 3 2 2 2 2 2 2 1 0 0 0 1 1 1 1 2 2 2 2 3 3 3 3 4 4 4 3 3 4 4 4 5 5 5 5 5 6 6 6 6 6 6 6 6 7 7
4 3 3 3 2 2 2 2 2 2 2 1 1 1 1 1 1 1 1 1 2 3 3 4 4 4 4 4 4 4 4 4 4 5 5 6 6 6 6 6 7 7 7 7 7 7 7 7 8
4 5 4 3 2 2 2 2 2 2 2 2 2 2 2 2 2 2 2 2 3 3 4 5 5 5 5 5 5 5 5 5 5 5 6 6 7 7 7 7 7 7 8 8 8 8 8 8 8
4 5 4 3 3 3 3 3 3 3 3 3 3 3 3 3 3 3 4 4 4 4 4 5 5 5 5 5 6 6 6 6 6 6 6 7 7 7 7 8 8 7 8 8 8 8 9 9 8
4 4 4 4 4 4 4 4 4 4 4 4 5 4 4 4 4 4 4 4 5 5 5 5 5 5 5 5 6 6 7 7 7 7 7 7 8 8 8 8 8 8 8 8 8 9 9 9 9
6 5 4 4 4 5 5 4 5 5 4 4 4 4 5 5 5 5 5 5 5 5 6 6 6 5 5 5 6 6 7 7 7 7 7 8 8 8 8 8 8 9 9 9 9 9 10 9 10
7 6 5 5 5 5 5 5 5 5 5 5 4 5 5 5 5 6 6 6 6 6 6 6 6 6 5 6 6 6 6 7 7 7 7 8 8 8 8 8 8 8 9 9 9 10 10 10 10
7 7 7 7 6 6 6 6 5 5 5 5 5 5 5 5 6 7 7 6 6 6 6 7 6 6 6 6 6 6 7 7 7 7 7 7 8 8 8 8 8 9 9 9 9 10 10 11 11
7 7 7 7 6 6 6 6 5 5 5 5 5 5 5 6 6 7 7 6 6 7 7 6 6 6 6 7 7 7 7 7 7 7 8 8 8 8 8 8 9 9 9 9 9 10 11 11 12
8 7 7 6 7 6 6 6 6 5 6 6 6 6 6 6 7 7 7 7 7 7 7 7 6 6 7 7 7 7 8 7 8 8 8 8 9 9 9 9 9 9 9 9 9 10 11 11 12
8 8 7 7 7 7 7 6 6 5 6 6 6 7 6 6 7 7 7 7 7 7 6 6 7 7 7 7 7 7 8 7 8 8 8 9 10 10 10 10 10 9 9 9 10 10 11 12 12
9 9 9 9 8 8 8 7 6 6 6 6 6 6 7 7 7 7 7 7 7 7 7 6 7 7 7 7 7 7 7 7 8 9 10 10 11 11 11 11 11 10 10 10 11 11 11 12 11
9 10 10 10 9 9 9 8 7 7 6 6 6 6 6 6 6 7 7 7 7 7 7 7 7 7 7 7 7 7 8 8 8 9 10 11 11 12 12 12 11 10 11 11 11 11 11 11 11
11 11 11 11 11 10 9 8 8 8 7 7 7 7 7 6 6 7 7 7 7 7 7 7 7 7 8 8 8 9 9 9 9 10 11 12 12 12 12 12 12 11 11 11 11 11 12 11 11
12 12 11 11 11 11 10 9 9 8 8 7 7 7 7 6 7 7 7 7 7 7 7 8 8 8 9 9 9 9 10 10 10 10 11 12 12 12 12 12 12 12 12 11 12 12 12 12 12
12 12 12 11 11 11 10 10 10 9 8 8 8 8 8 8 8 8 7 7 7 7 8 8 9 9 10 10 10 10 10 11 11 11 12 12 11 12 12 12 12 12 12 12 12 12 12 13 13
13 13 13 12 12 12 11 11 11 10 10 9 9 9 9 8 8 8 8 8 8 7 8 8 9 9 9 9 9 9 10 10 11 11 11 12 12 12 12 12 12 12 12 12 12 12 12 13 13
13 13 13 13 13 13 12 11 11 11 11 10 10 10 10 10 9 9 9 8 8 8 8 9 9 9 9 9 9 10 10 10 10 10 11 11 12 12 13 13 13 12 13 14 13 14 14 14 14
14 14 13 13 14 14 13 13 12 12 12 12 12 11 11 11 10 10 10 9 9 9 9 9 10 10 10 10 10 10 10 10 11 11 11 12 12 12 12 13 13 13 14 15 14 15 15 15 15
15 14 14 14 14 14 14 14 13 13 13 13 13 12 12 12 11 12 11 10 10 10 10 10 11 11 11 11 11 11 11 11 12 12 13 13 13 13 14 13 12 13 14 15 15 16 16 17 17
15 14 15 15 15 15 15 15 13 13 14 15 14 13 13 13 12 12 12 12 11 11 11 11 11 11 12 12 12 12 12 12 12 13 13 14 14 15 14 14 14 15 15 15 16 17 17 18 18
15 15 16 16 16 16 16 17 14 14 15 15 15 14 14 14 14 13 13 13 12 12 12 12 12 12 12 12 12 13 13 13 13 14 14 15 15 16 16 15 15 16 16 16 17 17 18 18 18
15 15 16 16 17 17 16 17 16 15 15 15 15 15 15 15 14 14 14 14 13 13 13 13 13 12 13 13 13 13 14 14 14 15 15 16 16 16 16 16 16 17 17 18 18 18 19 19 19
15 15 16 17 17 17 16 16 16 15 15 16 15 16 16 16 15 15 14 15 14 14 14 14 14 14 14 13 14 14 14 15 15 15 16 16 17 18 18 18 18 18 19 19 19 20 20 20 21
16 16 17 18 18 17 17 17 16 16 16 16 16 16 15 15 15 15 15 15 15 15 15 15 15 15 15 15 15 15 15 16 16 16 16 17 18 18 19 19 19 19 19 20 21 21 22 21 21
17 17 17 18 19 18 17 17 16 16 16 17 16 16 16 15 16 16 16 16 17 16 16 16 16 16 16 16 16 17 16 17 17 17 17 18 19 19 19 19 20 20 21 21 21 22 22 22 22
18 18 18 18 19 19 18 17 16 16 16 17 17 17 16 16 16 17 17 17 17 16 17 17 17 17 18 18 18 18 18 18 19 18 19 19 19 20 20 21 21 21 22 23 23 23 23 23 22
19 19 19 20 20 19 19 18 17 17 17 17 17 18 18 18 18 18 18 18 18 19 19 19 19 19 19 19 19 19 19 20 20 20 20 21 21 21 21 21 22 22 23 23 23 23 23 23 23
19 20 19 20 20 21 21 20 18 18 18 18 17 18 19 19 18 19 19 19 20 20 20 20 20 19 20 20 20 20 20 21 21 22 22 22 22 22 23 23 23 23 24 24 24 25 24 24 25

GEFSSGP_500_meanwind_366.txt.gz
Wind_Speed
3 3 2 2 2 2 2 2 2 2 2 2 2 3 3 3 4 4 4 4 4 4 4 3 3 3 3 3 3 3 3 3 3 3 3 3 3 3 3 3 3 3 3 4 4 4 5 5 5
4 3 3 2 2 2 2 2 2 2 2 2 2 2 3 3 3 3 4 5 5 4 4 4 4 3 4 4 4 4 4 4 4 4 4 4 4 4 4 4 4 4 4 4 4 5 5 6 6
4 4 3 3 2 2 2 2 2 3 3 2 1 1 2 3 3 3 4 4 5 4 4 4 4 4 4 4 5 4 5 5 5 4 4 4 4 5 5 5 5 5 5 5 5 6 6 6 6
5 4 3 3 3 3 3 3 3 3 3 2 2 2 2 3 3 3 3 3 3 4 3 4 4 4 5 5 5 6 6 6 6 6 5 5 5 5 6 6 6 7 6 6 6 6 6 6 7
5 4 4 4 4 3 3 3 3 3 3 3 3 3 3 3 4 3 3 4 4 4 4 4 4 4 5 5 5 6 6 7 7 7 6 6 6 6 7 7 7 7 7 7 8 8 7 8 8
5 5 4 5 4 4 4 3 3 4 4 4 4 4 4 4 4 4 4 4 4 4 4 5 5 5 5 5 6 6 7 7 7 8 7 7 7 7 7 7 8 8 8 8 8 8 9 9 9
5 5 5 5 5 5 5 4 4 4 5 5 5 5 5 5 5 5 5 5 5 5 5 5 6 6 6 6 6 6 7 7 8 8 8 8 8 8 8 8 8 9 9 9 8 9 9 9 9
6 6 6 6 6 6 5 5 5 5 5 5 5 5 5 6 6 6 6 6 6 6 6 6 6 6 7 7 7 7 7 7 7 8 8 8 8 8 8 8 9 9 9 9 9 9 9 10 10
6 6 6 7 7 6 5 5 5 5 5 5 5 5 6 6 6 6 6 6 6 6 7 7 7 7 7 7 7 7 7 7 7 7 8 8 8 8 8 8 8 9 9 9 9 10 10 10 10
7 7 7 7 7 7 6 6 5 5 5 5 5 5 6 6 6 7 7 7 7 7 7 7 7 7 7 7 8 8 8 7 8 8 8 8 8 8 8 9 9 9 9 9 10 10 10 10 10
7 8 8 8 8 7 6 6 6 5 5 5 6 6 6 6 7 7 7 7 7 7 8 8 8 8 8 8 8 9 8 8 8 8 9 9 9 9 9 9 9 9 9 8 9 9 9 10 10
8 8 8 8 8 7 6 6 6 6 6 6 6 6 6 7 7 7 7 7 8 8 8 8 8 8 8 8 9 9 8 8 8 9 9 9 9 9 10 10 10 9 9 9 8 8 9 9 10
9 9 9 9 8 8 7 7 7 7 7 7 7 7 7 7 7 7 7 7 8 8 8 8 8 9 9 9 9 9 9 9 9 9 9 10 10 11 11 11 11 10 10 10 9 9 8 9 10
9 10 10 9 9 9 9 9 9 9 8 8 8 8 8 8 8 8 8 8 8 9 9 9 9 9 9 9 9 9 9 9 9 9 9 10 10 10 10 10 10 10 9 9 9 9 9 10 10
10 10 10 10 10 10 10 10 10 10 10 9 8 8 8 8 8 9 9 10 10 10 10 10 10 9 9 9 10 10 10 10 10 10 10 11 11 11 11 11 10 11 11 10 10 10 10 10 10
10 10 11 10 10 10 11 11 11 11 10 10 10 9 9 9 8 8 9 9 10 10 10 10 9 9 9 9 9 9 9 10 10 10 11 11 11 11 11 12 12 12 12 11 11 11 11 11 11
11 11 11 11 11 11 12 12 11 11 11 11 11 10 10 10 9 9 9 9 10 10 10 10 9 9 9 9 9 9 10 10 10 11 10 10 10 10 10 11 12 12 11 12 11 12 12 12 12
11 12 12 12 12 12 13 12 12 12 12 12 12 12 11 11 10 10 10 10 10 10 10 10 10 9 9 9 9 10 10 10 11 11 10 10 10 10 10 10 11 11 12 12 13 13 13 13 13
12 13 13 13 13 13 14 13 13 13 13 13 13 13 13 12 12 11 11 10 10 10 10 10 10 10 9 9 10 10 10 11 11 10 10 10 10 11 10 11 11 11 12 13 14 14 14 14 14
12 12 13 14 14 14 14 14 14 14 14 14 14 13 14 13 12 12 11 11 11 10 10 10 10 10 11 11 11 11 12 12 11 11 10 11 11 12 12 12 12 13 13 14 14 14 14 15 15
12 12 13 13 13 14 15 15 15 15 15 14 14 14 13 13 13 13 13 12 12 12 11 11 11 11 12 12 12 12 12 13 13 12 12 12 12 12 13 13 13 13 13 14 14 14 15 15 16
12 12 12 12 13 13 14 16 16 16 15 15 15 14 14 14 14 13 13 13 13 13 13 13 12 12 13 13 13 13 13 13 12 13 13 13 13 13 13 13 14 14 14 14 14 15 15 16 16
12 12 12 13 13 14 14 15 16 16 16 16 16 15 16 15 15 15 15 15 14 14 13 13 13 13 13 13 14 14 14 13 13 13 14 14 14 14 14 13 14 14 15 15 15 15 15 16 17
13 13 13 14 14 15 15 15 16 16 15 15 15 16 16 16 16 16 16 16 16 15 15 14 14 14 14 14 14 14 14 14 14 15 15 15 15 15 15 15 15 16 16 16 16 16 16 17 18
14 13 14 15 15 16 15 16 16 16 16 16 16 16 16 16 16 16 16 16 17 17 17 16 16 16 15 16 16 15 15 15 15 15 15 15 15 15 16 16 16 17 17 17 17 17 18 18 19
14 14 15 16 16 16 16 17 17 16 16 16 16 15 15 15 15 16 16 16 16 17 17 17 17 17 17 17 17 17 17 17 16 17 17 16 16 17 17 16 17 17 17 17 18 18 19 20 21
15 15 16 16 16 16 17 18 17 17 17 16 16 16 16 15 15 16 16 17 17 18 18 17 17 18 18 18 18 18 19 18 18 18 18 17 17 17 17 17 18 18 18 18 19 19 20 21 21
15 15 16 16 17 17 17 18 18 17 17 17 17 17 17 16 16 16 16 17 18 18 18 18 18 18 19 20 20 20 20 19 19 19 19 18 18 18 19 19 19 19 19 19 20 21 21 22 23
15 16 16 17 17 18 18 18 18 18 17 17 17 17 17 17 17 17 17 18 17 18 18 19 19 19 19 20 20 20 21 21 21 20 20 20 20 20 20 20 20 21 21 21 21 22 23 24 24
16 16 16 17 17 18 19 18 18 18 18 18 17 17 18 18 18 18 18 19 18 19 19 20 20 20 21 21 21 21 22 23 22 22 22 22 21 22 22 22 22 22 23 23 23 24 24 25 25

GEFSSGP_500_meanwind_372.txt.gz
Wind_Speed
2 2 2 2 2 2 1 0 1 1 1 2 2 2 3 3 4 4 4 4 5 5 5 5 5 5 5 5 5 5 5 5 6 6 6 6 5 5 5 5 5 5 5 5 6 5 5 5 5
3 2 2 2 2 2 1 1 1 2 2 2 2 2 2 3 3 4 5 5 6 6 6 6 6 6 6 6 6 6 7 7 7 7 6 6 6 5 6 5 6 6 6 5 5 6 6 6 6
3 3 3 2 2 2 2 2 2 2 3 3 3 3 3 4 4 5 5 6 6 6 7 7 6 6 7 7 7 7 7 7 7 7 7 6 6 6 6 6 6 6 6 6 6 6 6 6 6
4 4 3 3 2 2 3 3 3 3 4 4 5 4 4 5 5 5 6 6 6 6 7 7 6 7 7 8 8 8 8 8 8 8 7 7 7 7 7 7 7 7 7 7 7 7 7 7 7
5 4 3 3 3 4 4 4 5 5 5 5 6 6 5 6 6 6 7 7 6 6 6 7 7 7 8 8 8 8 8 8 8 8 8 8 7 8 8 8 7 7 8 7 8 8 7 8 8
5 4 4 3 4 5 5 5 5 6 6 6 6 6 6 7 7 7 7 7 7 7 7 7 7 8 8 8 8 8 8 8 9 9 9 9 9 9 9 9 8 8 9 9 9 9 9 9 9
6 5 5 5 5 6 6 6 6 6 6 7 7 7 7 8 8 8 8 8 8 8 7 7 8 8 8 8 8 9 9 9 9 10 10 10 10 9 9 9 9 9 9 10 9 9 9 9 9
6 6 6 6 6 6 7 7 7 7 7 7 7 7 7 7 8 8 8 8 8 8 8 8 8 8 8 8 8 9 9 9 10 10 10 10 10 10 10 9 9 9 9 9 9 9 10 10 10
7 7 7 7 7 7 8 8 8 7 8 8 8 7 7 8 8 8 8 8 9 9 9 9 9 9 8 9 9 9 9 10 11 11 11 11 11 11 11 10 9 10 10 10 10 10 10 10 10
8 8 8 8 8 8 8 8 8 8 8 8 8 8 8 8 8 8 8 9 9 9 10 10 10 9 9 9 10 10 10 11 11 11 11 11 11 11 11 10 10 9 9 10 10 10 9 10 10
9 9 9 9 9 9 9 9 9 8 8 8 8 8 9 9 9 9 9 9 9 9 10 10 10 10 10 10 10 11 11 11 11 11 11 11 11 11 11 10 11 10 10 9 9 9 9 9 10
10 10 10 9 9 9 9 10 9 9 9 9 9 9 9 10 10 10 9 9 9 9 9 10 11 11 11 11 11 11 12 12 11 11 11 12 11 11 11 11 11 10 10 9 10 10 10 10 10
10 10 10 10 10 10 10 10 9 10 10 10 10 10 10 11 11 10 10 10 10 10 10 10 10 11 11 11 11 12 12 12 11 11 11 11 11 11 11 12 12 12 11 10 11 11 11 11 11
10 11 11 11 10 10 10 10 10 10 11 11 11 10 10 11 11 11 11 11 11 11 11 11 11 11 11 11 12 12 12 12 12 12 11 11 12 12 12 12 12 12 12 12 12 12 12 12 12
10 11 11 11 11 11 12 12 11 12 12 12 11 11 11 11 11 12 11 11 12 12 12 12 12 12 12 12 12 12 12 12 12 12 12 12 12 12 12 12 12 12 12 12 12 13 13 13 13
11 11 12 11 12 12 13 12 11 12 12 12 12 12 12 12 12 12 12 12 12 12 12 12 12 12 12 13 13 12 12 12 11 12 12 12 12 12 12 12 11 11 11 12 12 13 13 13 13
11 11 12 12 12 13 13 13 12 12 13 13 13 13 13 12 13 13 12 12 12 12 13 13 12 13 13 13 12 12 12 12 12 12 12 12 12 12 12 12 12 12 12 12 13 14 14 14 14
11 11 12 12 12 13 14 13 13 13 13 13 13 13 13 13 14 13 13 13 13 13 13 13 13 13 13 13 12 12 12 12 12 12 12 12 12 11 11 12 12 12 13 13 13 14 14 14 14
12 13 13 13 13 13 14 14 14 14 14 14 14 14 14 14 14 14 14 14 14 14 13 13 13 13 13 12 12 12 12 12 12 12 12 12 12 12 12 12 12 12 13 13 13 14 14 14 14
13 13 14 14 14 14 14 14 14 14 15 15 15 15 15 15 15 15 15 15 15 14 14 14 14 14 13 13 13 13 13 13 13 13 13 13 13 13 12 12 12 13 13 14 13 14 14 14 15
14 14 14 14 13 13 14 14 15 14 15 15 15 15 16 16 16 15 15 15 15 15 15 14 14 14 14 14 14 14 14 14 13 14 14 14 13 13 13 13 13 13 14 14 14 14 15 15 16
13 13 13 13 13 13 14 15 15 14 15 15 15 16 16 16 16 16 16 16 15 15 15 14 14 14 15 15 15 15 15 14 14 14 14 14 14 14 14 14 14 14 14 15 15 15 15 15 15
13 13 13 14 14 14 14 16 15 15 15 15 16 17 17 17 17 17 17 16 16 15 15 15 15 16 16 16 16 16 16 15 15 14 14 14 14 14 15 14 14 15 16 16 15 15 15 15 16
13 13 13 14 15 16 14 15 16 17 17 17 17 17 17 17 17 17 17 16 16 16 16 16 16 17 17 17 17 16 16 16 16 16 15 14 14 15 15 15 15 16 16 16 16 16 17 17 17
15 15 14 14 15 15 14 16 17 18 18 18 18 17 17 17 17 17 17 17 16 16 17 17 17 17 17 17 17 17 17 16 17 17 16 15 15 15 15 16 16 16 17 17 16 17 17 18 18
16 15 14 13 14 15 14 16 17 17 17 17 18 17 18 18 18 18 18 17 17 17 17 17 17 17 18 18 18 18 18 18 17 18 18 17 16 16 16 17 17 17 18 18 17 17 18 19 19
16 16 15 14 14 15 16 17 17 17 18 17 17 17 18 18 18 18 18 18 18 17 17 18 17 18 18 18 19 19 19 19 19 19 19 19 19 18 17 18 18 18 19 19 19 19 19 19 19
17 16 15 15 15 15 16 17 17 17 17 18 19 19 18 18 18 18 19 18 18 18 18 18 19 19 19 19 19 20 19 19 20 20 20 20 20 19 19 19 19 20 20 20 20 20 20 20 21
16 16 16 16 15 14 15 16 17 18 18 19 19 20 20 19 19 19 19 19 19 19 19 19 20 20 21 20 20 21 21 21 21 21 22 21 21 21 21 21 20 20 20 20 21 21 21 22 22
17 15 16 16 16 16 16 17 18 19 19 20 20 21 21 20 20 20 20 20 21 21 20 20 21 21 22 22 22 22 22 22 22 22 22 22 22 22 22 22 22 22 22 22 22 22 23 23 23

GEFSSGP_500_meanwind_378.txt.gz
Wind_Speed
3 3 2 2 2 2 2 2 3 2 2 1 1 1 1 1 1 1 1 2 2 3 3 3 4 4 5 5 5 6 5 5 5 6 6 6 6 6 6 5 5 5 6 6 6 6 7 7 7
3 3 3 3 2 2 1 1 2 2 1 1 1 1 1 1 1 1 2 3 3 3 4 4 5 5 6 6 6 6 6 6 6 6 7 7 7 7 6 6 5 6 6 6 6 7 7 7 7
3 3 3 3 3 2 1 1 1 1 1 1 1 1 2 2 2 2 2 3 3 4 4 5 5 6 6 7 7 7 7 7 7 7 7 8 7 7 6 7 6 6 6 6 6 7 7 7 7
3 3 3 3 3 2 2 1 1 1 1 1 2 2 3 3 3 3 3 3 4 4 5 5 5 6 6 7 8 8 8 8 7 8 8 8 8 8 7 7 7 7 8 7 7 7 7 7 7
4 4 4 3 3 3 2 2 2 2 2 2 3 3 3 3 4 4 4 4 4 5 5 5 6 6 7 8 7 8 8 8 8 8 8 8 8 8 8 8 8 8 8 8 8 8 8 8 8
5 4 4 4 4 3 3 3 3 3 3 3 3 3 4 4 4 4 5 5 5 5 6 6 7 7 7 8 8 8 9 8 9 9 9 9 9 9 9 9 8 9 9 9 8 9 9 9 9
5 5 5 4 4 4 4 4 4 4 4 3 4 4 5 5 5 5 6 6 6 6 6 7 7 8 7 7 8 9 9 9 9 9 9 9 9 9 9 9 9 9 9 9 9 9 9 9 9
6 6 6 5 5 5 6 5 5 5 5 5 5 5 5 6 6 6 6 7 7 7 7 8 8 8 8 8 9 9 10 10 10 9 9 9 8 9 10 10 10 10 9 9 9 9 9 9 9
7 7 6 6 6 6 6 6 6 6 6 5 5 6 6 6 6 6 6 7 7 7 8 8 8 8 9 9 10 10 10 11 10 10 9 9 9 9 9 10 10 10 10 9 10 9 9 9 9
8 8 7 7 7 6 7 6 6 7 6 6 6 6 6 7 7 6 6 7 7 7 8 8 8 8 9 9 10 10 10 10 10 9 9 9 9 9 10 10 10 10 9 10 10 10 10 10 10
8 8 8 7 7 7 7 7 7 7 6 6 6 6 7 7 7 6 6 7 7 7 7 8 8 9 9 9 10 10 10 10 10 10 10 10 10 10 10 10 9 10 10 10 10 10 10 10 10
8 8 7 7 8 8 8 8 7 7 8 7 7 7 7 7 7 7 7 7 8 8 7 7 8 9 10 10 10 10 10 10 11 10 10 10 10 10 10 10 10 10 10 10 10 10 10 10 10
8 8 8 8 8 8 8 8 8 8 8 8 8 7 7 8 8 8 8 8 8 9 8 8 8 9 9 10 10 11 10 10 10 11 10 10 10 10 10 10 10 10 10 10 10 10 11 10 10
8 9 9 9 9 9 9 9 9 8 8 8 8 8 8 8 8 8 8 8 8 9 9 9 9 10 10 11 11 11 11 10 10 10 10 11 11 11 10 11 11 11 11 11 11 11 11 11 11
9 9 9 9 9 9 10 10 10 9 9 8 9 8 8 8 9 8 8 8 8 8 9 10 11 11 11 11 11 11 10 11 10 10 10 11 11 12 12 11 11 11 10 11 11 11 11 11 12
10 10 11 10 11 11 11 11 10 10 10 9 9 9 9 9 9 9 9 9 9 9 10 10 10 10 11 11 11 10 10 10 10 10 10 11 11 11 11 11 11 10 10 10 10 11 11 12 12
11 11 12 12 12 11 12 12 11 11 11 10 10 10 10 10 11 10 10 10 10 10 10 10 10 11 11 11 11 10 10 10 10 10 10 10 10 11 10 10 10 10 10 10 10 11 11 12 12
11 12 12 12 12 11 11 11 10 11 11 11 11 11 11 11 11 11 11 11 12 11 11 11 11 11 11 11 11 11 11 11 11 10 10 10 10 10 10 10 9 10 11 11 11 11 12 12 12
12 12 12 12 12 12 11 11 10 10 11 11 11 11 11 11 11 11 11 11 12 12 12 12 12 11 11 11 12 12 11 11 11 10 10 10 10 10 11 10 10 11 11 11 11 12 12 12 12
13 13 12 11 12 12 12 12 11 11 11 11 11 11 11 11 11 11 11 11 12 12 12 13 12 12 12 11 12 12 11 10 10 10 10 10 10 10 11 11 11 11 11 11 12 12 12 12 13
14 14 12 12 12 12 12 12 12 12 12 11 11 11 11 12 11 11 11 11 12 12 13 13 12 12 12 12 12 12 11 10 10 11 11 11 11 11 11 12 12 12 11 12 12 12 13 13 13
14 14 13 13 13 13 13 13 12 13 13 12 12 12 12 12 12 12 12 11 12 12 13 12 12 12 12 12 12 11 11 11 11 11 11 11 11 12 12 12 13 13 13 13 13 13 13 13 13
14 14 14 14 14 14 14 14 14 13 13 13 13 13 13 13 12 12 12 12 12 12 12 12 12 11 11 12 12 12 12 12 13 13 13 13 12 13 13 14 14 14 14 13 13 14 14 14 14
15 15 15 15 15 15 13 14 14 13 14 13 13 13 13 13 13 13 12 12 13 13 13 13 13 12 12 12 12 12 12 13 14 14 14 15 14 14 15 15 15 15 15 15 14 14 14 15 15
15 15 15 16 15 15 14 14 14 14 14 14 13 13 13 13 13 13 13 13 13 13 14 14 14 14 13 13 14 14 14 14 15 15 15 16 16 16 16 16 16 16 16 15 15 15 16 16 16
14 15 15 16 15 15 15 15 14 14 15 14 14 15 14 14 14 14 13 14 14 15 14 14 14 15 15 14 15 15 16 16 16 16 17 17 17 17 17 16 16 16 17 16 16 16 17 17 18
15 15 15 15 16 16 16 16 14 14 15 15 15 15 15 16 16 15 14 15 16 16 16 16 16 15 15 16 16 16 16 17 18 18 18 18 19 18 18 17 17 17 17 17 18 18 18 19 19
16 16 16 16 16 17 17 16 15 15 15 15 15 16 16 17 17 17 17 17 17 18 18 18 17 17 17 17 18 18 17 17 18 19 20 20 20 20 19 19 19 18 18 19 19 19 19 20 21
16 16 17 17 17 17 17 16 16 16 15 15 16 16 17 18 18 18 18 18 19 20 19 19 19 19 19 19 19 19 19 19 19 19 20 20 20 20 20 20 20 20 20 20 20 20 20 21 22
17 17 18 18 18 18 18 17 17 17 17 17 16 17 18 19 19 19 19 19 20 20 20 20 21 20 21 21 20 20 20 20 20 20 20 21 21 21 22 22 22 21 21 21 21 21 22 22 23